Flag for Canada Weather past 2 weeks in Lethbridge, Alberta, Canada

Now
23 °F

Passing clouds.


Feels Like: 12 °F
Forecast: 4 / 23 °F
Wind: 12 mph from Southwest

Location: Lethbridge

Current Time: Mar 1, 2015 at 9:40:39 PM

Latest Report: Mar 1, 2015 at 9:00 PM


Visibility: 15 mi

Pressure: 29.98 "Hg

Humidity: 74%

Dew point: 16 °F

Location of LethbridgeLocation

Historic Weather in Lethbridge — Graph

°F

Lethbridge temperature yesterday

Maximum temperature yesterday: 28 °F (at 2:00 PM)
Minimum temperature yesterday: 5 °F (at 2:01 AM)
Average temperature yesterday: 17 °F

Past Weeks' High & Low Weather Summary

 TemperatureHumidityPressure
High55 °F (Feb 19, 2:00 PM)100% (Feb 15, 1:00 AM)30.77 "Hg (Feb 15, 1:00 AM)
Low-4 °F (Feb 22, 3:00 AM)23% (Feb 19, 2:00 PM)29.86 "Hg (Feb 19, 12:00 AM)
Average27 °F73%30.31 "Hg
* Reported Feb 14 8:00 PM — Mar 1 8:00 PM, Lethbridge, Weather by CustomWeather, © 2015

Note: Actual official high and low records may vary slightly from our data, if they occured in-between our weather recording intervals... More about our weather records

Advertising

Lethbridge weather history for previous 24 hours

 ConditionsComfort  
Time TempWeatherWind HumidityBarometerVisibility
8:00 PM
Sun, Mar 1
25 °FPassing clouds.15 mph74%30.02 "Hg15 mi
7:00 PM27 °FPassing clouds.12 mph74%30.04 "Hg40 mi
6:00 PM30 °FPartly sunny.10 mph69%30.05 "Hg40 mi
5:00 PM36 °FPartly sunny.21 mph44%30.06 "Hg40 mi
4:00 PM37 °FPartly sunny.20 mph38%30.09 "Hg40 mi
3:00 PM37 °FPartly sunny.22 mph38%30.11 "Hg40 mi
2:00 PM37 °FPartly sunny.21 mph35%30.14 "Hg40 mi
1:00 PM37 °FScattered clouds.20 mph35%30.19 "Hg40 mi
12:00 PM34 °FScattered clouds.21 mph38%30.22 "Hg40 mi
11:00 AM32 °FPassing clouds.21 mph44%30.25 "Hg40 mi
10:00 AM27 °FPassing clouds.9 mph64%30.29 "Hg40 mi
9:00 AM19 °FPassing clouds.8 mph68%30.32 "Hg40 mi
8:00 AM10 °FPassing clouds.2 mph85%30.35 "Hg40 mi
7:00 AM7 °FClear.6 mph92%30.38 "Hg30 mi
6:00 AM10 °FClear.9 mph85%30.38 "Hg15 mi
5:00 AM12 °FClear.9 mph79%30.38 "Hg9 mi
4:00 AM12 °FClear.10 mph79%30.39 "Hg9 mi
3:00 AM14 °FOvercast.9 mph79%30.39 "Hg9 mi
2:00 AM14 °FPassing clouds.8 mph85%30.40 "Hg9 mi
1:00 AM18 °FMostly cloudy.7 mph79%30.40 "Hg9 mi
12:00 AM19 °FLight snow. Overcast.9 mph79%30.39 "Hg9 mi
11:00 PM
Sat, Feb 28
19 °FOvercast.6 mph79%30.40 "Hg9 mi
10:00 PM23 °FOvercast.5 mph80%30.38 "Hg9 mi
9:00 PM25 °FOvercast.15 mph74%30.37 "Hg15 mi
Weather by CustomWeather, © 2015

See weather overviewHow to use our weather pages